Rolla, ND

2:43 PM CDT on July 21, 2017 (GMT -0500)
Rolla

Weather History for K06D - December, 2011

Change the Weather History Date:

Tuesday, December 13, 2011

  Actual Average (KRUG) Record (KRUG)
Temperature  
Mean Temperature 19 °F -  
Max Temperature 24 °F 20 °F 39 °F (2014)
Min Temperature 14 °F 3 °F -23 °F (1989)
Degree Days  
Heating Degree Days 46    
Moisture  
Dew Point 18 °F    
Average Humidity 97    
Maximum Humidity 100    
Minimum Humidity 79    
Precipitation  
Precipitation 0.00 in - - ()
Sea Level Pressure  
Sea Level Pressure 30.14 in    
Wind  
Wind Speed 10 mph (South)    
Max Wind Speed 21 mph    
Max Gust Speed 30 mph    
Visibility 7 miles    
Events Fog    
Averages and records for this station are not official NWS values.
T = Trace of Precipitation, MM = Missing Value Source: NWS Daily Summary

Daily Weather History Graph

Daily Weather History Graph

Search for Another Location

Airport or City:

Trip Planner

Search our weather history database for the weather conditions in past years. The results will help you decide how hot, cold, wet, or windy it might be!

Date:

Astronomy

Dec. 13, 2011 Rise Set
Actual Time 8:23 AM CST 4:41 PM CST
Civil Twilight 7:46 AM CST 5:18 PM CST
Nautical Twilight 7:06 AM CST 5:59 PM CST
Astronomical Twilight 6:27 AM CST 6:37 PM CST
Moon 8:08 PM CST (12/13) 10:26 AM CST (12/13)
Length of Visible Light 9h 32m
Length of Day
8h 18m
Waning Gibbous, 90% of the Moon is Illuminated
Dec 13
Waning Gibbous
Dec 17
Last Quarter
Dec 24
New
Jan 1
First Quarter
Jan 9
Full

Hourly Weather History & Observations

Time (CST) Temp. Windchill Dew Point Humidity Pressure Visibility Wind Dir Wind Speed Gust Speed Precip Events Conditions
12:15 AM 15.8 °F 7.2 °F 10.4 °F 79% 30.30 in 10.0 mi SE 5.8 mph - N/A   Overcast
12:35 AM 15.8 °F 10.2 °F 10.4 °F 79% 30.30 in 10.0 mi SE 3.5 mph - N/A   Overcast
12:55 AM 15.8 °F 10.2 °F 10.4 °F 79% 30.30 in 10.0 mi SE 3.5 mph - N/A   Overcast
1:15 AM 15.8 °F 8.6 °F 10.4 °F 79% 30.31 in 10.0 mi SSE 4.6 mph - N/A   Overcast
1:35 AM 15.8 °F 7.2 °F 10.4 °F 79% 30.29 in 10.0 mi SSE 5.8 mph - N/A   Overcast
1:55 AM 15.8 °F 7.2 °F 12.2 °F 86% 30.29 in 10.0 mi South 5.8 mph - N/A   Overcast
2:15 AM 15.8 °F 6.1 °F 12.2 °F 86% 30.28 in 10.0 mi SSE 6.9 mph - N/A   Overcast
2:35 AM 15.8 °F 4.2 °F 14.0 °F 93% 30.27 in 10.0 mi South 9.2 mph - N/A   Overcast
2:55 AM 15.8 °F 4.2 °F 14.0 °F 93% 30.27 in 10.0 mi South 9.2 mph - N/A   Overcast
3:15 AM 15.8 °F 4.2 °F 14.0 °F 93% 30.26 in 10.0 mi South 9.2 mph - N/A   Overcast
3:35 AM 15.8 °F 3.4 °F 14.0 °F 93% 30.25 in 10.0 mi South 10.4 mph - N/A   Overcast
3:55 AM 15.8 °F 4.2 °F 15.8 °F 100% 30.24 in 10.0 mi South 9.2 mph - N/A   Overcast
4:15 AM 15.8 °F 2.7 °F 15.8 °F 100% 30.23 in 10.0 mi South 11.5 mph - N/A   Overcast
4:35 AM 15.8 °F 5.1 °F 14.0 °F 93% 30.23 in 10.0 mi South 8.1 mph - N/A   Overcast
4:55 AM 15.8 °F 2.7 °F 15.8 °F 100% 30.23 in 10.0 mi South 11.5 mph - N/A   Overcast
5:15 AM 15.8 °F 3.4 °F 15.8 °F 100% 30.23 in 10.0 mi South 10.4 mph - N/A   Overcast
5:35 AM 15.8 °F 4.2 °F 15.8 °F 100% 30.22 in 10.0 mi South 9.2 mph - N/A   Overcast
5:55 AM 15.8 °F 2.1 °F 15.8 °F 100% 30.22 in 10.0 mi South 12.7 mph - N/A   Overcast
6:15 AM 15.8 °F 3.4 °F 15.8 °F 100% 30.22 in 10.0 mi South 10.4 mph - N/A   Overcast
6:35 AM 14.0 °F 1.2 °F 14.0 °F 100% 30.22 in 8.0 mi South 10.4 mph - N/A   Overcast
6:55 AM 14.0 °F 2.9 °F 14.0 °F 100% 30.21 in 3.0 mi South 8.1 mph - N/A   Overcast
7:15 AM 14.0 °F -0.2 °F 14.0 °F 100% 30.21 in 1.8 mi South 12.7 mph - N/A   Overcast
7:35 AM 14.0 °F -0.2 °F 14.0 °F 100% 30.20 in 2.0 mi South 12.7 mph - N/A   Overcast
7:55 AM 14.0 °F 0.5 °F 14.0 °F 100% 30.19 in 1.2 mi SSW 11.5 mph - N/A   Overcast
8:15 AM 14.0 °F -0.8 °F 14.0 °F 100% 30.19 in 1.8 mi South 13.8 mph 17.3 mph N/A   Overcast
8:55 AM 14.0 °F -2.0 °F 14.0 °F 100% 30.18 in 0.8 mi SSW 16.1 mph 25.3 mph N/A   Overcast
9:35 AM 14.0 °F -3.0 °F 14.0 °F 100% 30.16 in 0.5 mi SSW 18.4 mph 23.0 mph N/A Fog Light Freezing Fog
9:55 AM 15.8 °F 0.9 °F 15.8 °F 100% 30.15 in 0.8 mi SSW 15.0 mph 20.7 mph N/A   Overcast
10:15 AM 15.8 °F -1.1 °F 15.8 °F 100% 30.15 in 1.5 mi SSW 19.6 mph 24.2 mph N/A   Overcast
10:35 AM 17.6 °F 0.9 °F 17.6 °F 100% 30.15 in 5.0 mi SSW 20.7 mph 26.5 mph N/A   Overcast
10:55 AM 17.6 °F 0.9 °F 17.6 °F 100% 30.15 in 5.0 mi SSW 20.7 mph 27.6 mph N/A   Overcast
11:15 AM 17.6 °F 1.7 °F 17.6 °F 100% 30.15 in 8.0 mi SSW 18.4 mph 29.9 mph N/A   Overcast
11:35 AM 19.4 °F 4.5 °F 19.4 °F 100% 30.13 in 10.0 mi SSW 17.3 mph 28.8 mph N/A   Overcast
11:55 AM 19.4 °F 4.1 °F 19.4 °F 100% 30.13 in 5.0 mi SSW 18.4 mph 26.5 mph N/A   Overcast
12:15 PM 19.4 °F 4.1 °F 19.4 °F 100% 30.11 in 5.0 mi SSW 18.4 mph - N/A   Overcast
12:35 PM 19.4 °F 4.1 °F 19.4 °F 100% 30.10 in 5.0 mi SSW 18.4 mph 21.9 mph N/A   Overcast
12:55 PM 21.2 °F 7.8 °F 21.2 °F 100% 30.09 in 5.0 mi SSW 15.0 mph 21.9 mph N/A   Overcast
1:15 PM 21.2 °F 7.3 °F 21.2 °F 100% 30.08 in 7.0 mi SSW 16.1 mph 19.6 mph N/A   Overcast
1:35 PM 21.2 °F 7.3 °F 21.2 °F 100% 30.07 in 9.0 mi SSW 16.1 mph - N/A   Overcast
1:55 PM 23.0 °F 10.1 °F 23.0 °F 100% 30.07 in 8.0 mi SSW 15.0 mph 21.9 mph N/A   Overcast
2:15 PM 23.0 °F 9.6 °F 23.0 °F 100% 30.06 in 7.0 mi SSW 16.1 mph 23.0 mph N/A   Overcast
2:35 PM 23.0 °F 11.1 °F 23.0 °F 100% 30.05 in 7.0 mi SSW 12.7 mph 20.7 mph N/A   Overcast
2:55 PM 23.0 °F 10.1 °F 23.0 °F 100% 30.04 in 8.0 mi SSW 15.0 mph - N/A   Overcast
3:15 PM 23.0 °F 11.1 °F 23.0 °F 100% 30.03 in 8.0 mi SSW 12.7 mph - N/A   Overcast
3:35 PM 23.0 °F 10.6 °F 23.0 °F 100% 30.03 in 7.0 mi SSW 13.8 mph - N/A   Overcast
3:55 PM 23.0 °F 11.7 °F 23.0 °F 100% 30.03 in 5.0 mi SSW 11.5 mph - N/A   Overcast
4:15 PM 23.0 °F 11.7 °F 23.0 °F 100% 30.02 in 4.0 mi South 11.5 mph 16.1 mph N/A   Overcast
4:35 PM 23.0 °F 12.4 °F 23.0 °F 100% 30.02 in 3.0 mi South 10.4 mph - N/A   Overcast
4:55 PM 23.0 °F 11.1 °F 23.0 °F 100% 30.02 in 4.0 mi SSW 12.7 mph 16.1 mph N/A   Overcast
5:35 PM 24.8 °F 11.5 °F 24.8 °F 100% 30.01 in 10.0 mi SSW 17.3 mph 20.7 mph N/A   Overcast
5:55 PM 24.8 °F 11.9 °F 24.8 °F 100% 30.00 in 10.0 mi SSW 16.1 mph - N/A   Overcast
6:15 PM 24.8 °F 12.9 °F 24.8 °F 100% 29.99 in 9.0 mi SSW 13.8 mph 19.6 mph N/A   Overcast
6:35 PM 24.8 °F 14.6 °F 24.8 °F 100% 29.99 in 10.0 mi SSW 10.4 mph 16.1 mph N/A   Overcast
6:55 PM 24.8 °F 14.0 °F 24.8 °F 100% 29.98 in 9.0 mi SSW 11.5 mph - N/A   Overcast
7:15 PM 24.8 °F 13.4 °F 24.8 °F 100% 29.97 in 10.0 mi SSW 12.7 mph - N/A   Overcast
7:55 PM 24.8 °F 13.4 °F 24.8 °F 100% 29.97 in 10.0 mi SSW 12.7 mph 19.6 mph N/A   Overcast
8:15 PM 24.8 °F 16.1 °F 24.8 °F 100% 29.96 in 10.0 mi SSW 8.1 mph - N/A   Overcast
8:35 PM 24.8 °F 14.0 °F 24.8 °F 100% 29.95 in 10.0 mi SSW 11.5 mph 17.3 mph N/A   Overcast
8:55 PM 24.8 °F 12.9 °F 24.8 °F 100% 29.95 in 10.0 mi SW 13.8 mph 19.6 mph N/A   Overcast
9:15 PM 24.8 °F 14.6 °F 24.8 °F 100% 29.94 in 9.0 mi SSW 10.4 mph 16.1 mph N/A   Overcast
9:35 PM 24.8 °F 14.6 °F 24.8 °F 100% 29.94 in 8.0 mi SSW 10.4 mph - N/A   Overcast
9:55 PM 24.8 °F 14.6 °F 24.8 °F 100% 29.92 in 8.0 mi SSW 10.4 mph 17.3 mph N/A   Overcast
10:15 PM 24.8 °F 12.4 °F 24.8 °F 100% 29.92 in 9.0 mi SSW 15.0 mph 21.9 mph N/A   Overcast
10:35 PM 24.8 °F 14.0 °F 24.8 °F 100% 29.91 in 9.0 mi SSW 11.5 mph - N/A   Overcast
10:55 PM 24.8 °F 12.9 °F 24.8 °F 100% 29.90 in 9.0 mi SSW 13.8 mph 19.6 mph N/A   Overcast
11:15 PM 24.8 °F 11.9 °F 24.8 °F 100% 29.89 in 9.0 mi SSW 16.1 mph - N/A   Overcast
11:35 PM 24.8 °F 12.9 °F 24.8 °F 100% 29.89 in 6.0 mi SSW 13.8 mph 18.4 mph N/A   Overcast
11:55 PM 24.8 °F 12.9 °F 24.8 °F 100% 29.89 in 5.0 mi SSW 13.8 mph 18.4 mph N/A   Overcast